sat.trackr.live / text

‹ back to catalog

STARLINK-3276

NORAD 50189 · 2021-125AK

PAYLOAD ACTIVE UNKNOWN

§ Identity

Operator
Country
US
Launch date
2021-12-18
Launch site
AFWTR
Launch vehicle
Mass (kg)
RCS (m²)

Purposes: comms

External: N2YO · Heavens-Above · Gunter

§ Orbital elements

Epoch: 2026-09-20T03:34:17.272128Z

Period
94.74 min
Inclination
53.2124°
Eccentricity
0.0002524
Mean motion
15.19903800 rev/d
Perigee alt
504.4 km
Apogee alt
507.9 km
Semi-major
6,884.3 km
B*
9.6111e-4
RAAN
85.1190°
Arg perigee
66.1662°
Mean anomaly
293.9600°
Rev number
26,615

§ Raw data

STARLINK-32761 50189U 21125AK  26263.14881102  .00020638  00000+0  96111-3 0  99972 50189  53.2124  85.1190 0002524  66.1662 293.9600 15.19903800266151

JSON: /api/v1/satellites/50189 · /tle

For live sub-satellite position, see the globe view (requires WebGL).

§ Visibility from observer

Set your observer location to see the next 7 days of passes ≥ 10°. The values pass through the URL so the page stays shareable.

No JS? Fill the form by hand. The geolocation button needs JavaScript.